BPOBER EDOY-EDOY

Flight info

Callsign BPOBER
Flight time 0h 45m
Altitude 2500
Route NIGHT VFR
Aircraft EC35/L-S/G

Departure

Time 2026-04-24 20:09
Airport Ahrensfelde Heliport (EDOY)

Arrival

Time 2026-04-24 20:54
Airport Ahrensfelde Heliport (EDOY)
Time Latitude Longitude Altitude Speed Heading
2026-04-24 20:08 52.59170 13.57302 598 ft 102 kts 167°
2026-04-24 20:09 52.58454 13.57681 766 ft 114 kts 167°
2026-04-24 20:09 52.57662 13.58089 916 ft 123 kts 167°
2026-04-24 20:09 52.56823 13.58512 1047 ft 128 kts 167°
2026-04-24 20:09 52.55959 13.58940 1148 ft 132 kts 167°
2026-04-24 20:10 52.55056 13.59378 1192 ft 138 kts 167°
2026-04-24 20:10 52.54123 13.59825 1216 ft 141 kts 167°
2026-04-24 20:10 52.53173 13.60275 1237 ft 142 kts 168°
2026-04-24 20:10 52.52220 13.60725 1248 ft 143 kts 168°
2026-04-24 20:11 52.51264 13.61178 1260 ft 143 kts 169°
2026-04-24 20:11 52.50308 13.61632 1278 ft 143 kts 169°
2026-04-24 20:11 52.49347 13.62073 1300 ft 143 kts 170°
2026-04-24 20:11 52.48379 13.62480 1293 ft 144 kts 170°
2026-04-24 20:12 52.47405 13.62909 1275 ft 145 kts 169°
2026-04-24 20:12 52.46430 13.63337 1281 ft 145 kts 170°
2026-04-24 20:12 52.45781 13.63587 1269 ft 146 kts 171°
2026-04-24 20:12 52.44478 13.63862 1248 ft 142 kts 184°
2026-04-24 20:13 52.43507 13.63713 1271 ft 140 kts 193°
2026-04-24 20:13 52.42534 13.63492 1257 ft 142 kts 194°
2026-04-24 20:13 52.41576 13.63195 1278 ft 137 kts 201°
2026-04-24 20:13 52.40998 13.62794 1256 ft 137 kts 213°
2026-04-24 20:14 52.40233 13.61847 1110 ft 135 kts 231°
2026-04-24 20:14 52.39704 13.60678 995 ft 124 kts 240°
2026-04-24 20:14 52.39349 13.59428 842 ft 120 kts 255°
2026-04-24 20:14 52.39044 13.58148 731 ft 118 kts 250°
2026-04-24 20:15 52.38760 13.56933 648 ft 112 kts 252°
2026-04-24 20:15 52.38497 13.55816 517 ft 102 kts 254°
2026-04-24 20:15 52.38252 13.54751 402 ft 97 kts 253°
2026-04-24 20:15 52.38039 13.53747 372 ft 90 kts 272°
2026-04-24 20:16 52.38474 13.53155 449 ft 107 kts 358°
2026-04-24 20:16 52.39137 13.53874 501 ft 122 kts 53°
2026-04-24 20:16 52.38998 13.55072 507 ft 118 kts 139°
2026-04-24 20:16 52.38320 13.54995 435 ft 113 kts 238°
2026-04-24 20:17 52.38057 13.53930 384 ft 78 kts 253°
2026-04-24 20:17 52.37672 13.52304 204 ft 86 kts 254°
2026-04-24 20:17 52.37446 13.51352 182 ft 96 kts 253°
2026-04-24 20:18 52.37278 13.50650 182 ft 104 kts 252°
2026-04-24 20:18 52.37064 13.49040 537 ft 101 kts 297°
2026-04-24 20:18 52.37657 13.48800 871 ft 101 kts
2026-04-24 20:18 52.38443 13.48961 970 ft 125 kts
2026-04-24 20:19 52.39256 13.49529 944 ft 133 kts 33°
2026-04-24 20:19 52.39825 13.50744 909 ft 138 kts 63°
2026-04-24 20:19 52.40211 13.52221 981 ft 145 kts 64°
2026-04-24 20:19 52.40622 13.53754 1016 ft 149 kts 63°
2026-04-24 20:20 52.41051 13.55327 995 ft 153 kts 63°
2026-04-24 20:20 52.41490 13.56924 986 ft 154 kts 62°
2026-04-24 20:20 52.41938 13.58518 983 ft 154 kts 62°
2026-04-24 20:20 52.42391 13.60106 985 ft 154 kts 61°
2026-04-24 20:21 52.42843 13.61690 981 ft 152 kts 62°
2026-04-24 20:21 52.43281 13.63263 983 ft 152 kts 63°
2026-04-24 20:21 52.43711 13.64862 1027 ft 156 kts 63°
2026-04-24 20:21 52.44158 13.66561 853 ft 167 kts 64°
2026-04-24 20:22 52.44599 13.68279 936 ft 165 kts 65°
2026-04-24 20:22 52.45034 13.70039 949 ft 167 kts 65°
2026-04-24 20:22 52.45460 13.71815 948 ft 167 kts 66°
2026-04-24 20:22 52.45874 13.73601 938 ft 167 kts 67°
2026-04-24 20:23 52.46277 13.75395 936 ft 167 kts 68°
2026-04-24 20:23 52.46670 13.77217 940 ft 167 kts 68°
2026-04-24 20:23 52.47044 13.78998 940 ft 167 kts 69°
2026-04-24 20:23 52.47412 13.80809 942 ft 167 kts 70°
2026-04-24 20:24 52.47767 13.82629 946 ft 167 kts 70°
2026-04-24 20:24 52.48107 13.84456 942 ft 167 kts 71°
2026-04-24 20:24 52.48434 13.86284 943 ft 167 kts 71°
2026-04-24 20:24 52.48750 13.88125 940 ft 167 kts 72°
2026-04-24 20:25 52.49055 13.89968 943 ft 167 kts 72°
2026-04-24 20:25 52.49346 13.91819 945 ft 167 kts 73°
2026-04-24 20:25 52.49627 13.93673 951 ft 167 kts 74°
2026-04-24 20:25 52.49895 13.95531 950 ft 167 kts 75°
2026-04-24 20:26 52.50152 13.97397 945 ft 167 kts 75°
2026-04-24 20:26 52.50395 13.99260 941 ft 167 kts 76°
2026-04-24 20:26 52.50633 14.01133 935 ft 167 kts 76°
2026-04-24 20:26 52.50878 14.03003 949 ft 167 kts 76°
2026-04-24 20:27 52.51124 14.04869 1068 ft 167 kts 75°
2026-04-24 20:27 52.51378 14.06735 1160 ft 167 kts 75°
2026-04-24 20:27 52.51638 14.08595 1202 ft 167 kts 74°
2026-04-24 20:27 52.51901 14.10461 1249 ft 168 kts 73°
2026-04-24 20:28 52.52171 14.12327 1284 ft 168 kts 73°
2026-04-24 20:28 52.52449 14.14186 1311 ft 168 kts 73°
2026-04-24 20:28 52.52731 14.16043 1344 ft 168 kts 73°
2026-04-24 20:28 52.53021 14.17902 1381 ft 168 kts 72°
2026-04-24 20:29 52.53214 14.19132 1399 ft 168 kts 72°
2026-04-24 20:29 52.53602 14.21616 1377 ft 168 kts 72°
2026-04-24 20:29 52.53883 14.23476 1357 ft 168 kts 73°
2026-04-24 20:29 52.54149 14.25343 1342 ft 168 kts 73°
2026-04-24 20:30 52.54406 14.27215 1327 ft 168 kts 74°
2026-04-24 20:30 52.54653 14.29088 1317 ft 168 kts 75°
2026-04-24 20:30 52.54901 14.30964 1306 ft 168 kts 74°
2026-04-24 20:30 52.55159 14.32831 1293 ft 168 kts 74°
2026-04-24 20:31 52.55427 14.34697 1283 ft 168 kts 74°
2026-04-24 20:31 52.55698 14.36565 1285 ft 168 kts 73°
2026-04-24 20:31 52.55976 14.38422 1272 ft 168 kts 73°
2026-04-24 20:31 52.56262 14.40286 1264 ft 168 kts 73°
2026-04-24 20:32 52.56555 14.42116 1258 ft 168 kts 72°
2026-04-24 20:32 52.56859 14.43991 1297 ft 168 kts 72°
2026-04-24 20:32 52.57153 14.45821 1506 ft 168 kts 72°
2026-04-24 20:32 52.57441 14.47704 1692 ft 168 kts 72°
2026-04-24 20:33 52.57712 14.49569 1764 ft 168 kts 72°
2026-04-24 20:33 52.57973 14.51442 1805 ft 168 kts 73°
2026-04-24 20:33 52.58223 14.53316 1860 ft 168 kts 74°
2026-04-24 20:33 52.58453 14.55121 1769 ft 149 kts 75°
2026-04-24 20:34 52.58634 14.56677 1718 ft 129 kts 75°
2026-04-24 20:34 52.58793 14.58050 1733 ft 115 kts 67°
2026-04-24 20:34 52.59233 14.59004 1823 ft 101 kts 24°
2026-04-24 20:34 52.59876 14.59328 1858 ft 95 kts 353°
2026-04-24 20:35 52.60488 14.59056 1862 ft 92 kts 327°
2026-04-24 20:35 52.60987 14.58406 1851 ft 91 kts 311°
2026-04-24 20:35 52.61344 14.57537 1832 ft 91 kts 300°
2026-04-24 20:35 52.61641 14.56633 1823 ft 91 kts 298°
2026-04-24 20:36 52.61933 14.55711 1816 ft 91 kts 298°
2026-04-24 20:36 52.62231 14.54797 1817 ft 91 kts 298°
2026-04-24 20:36 52.62527 14.53883 1816 ft 90 kts 298°
2026-04-24 20:36 52.62819 14.52969 1815 ft 90 kts 297°
2026-04-24 20:37 52.63111 14.52056 1822 ft 90 kts 297°
2026-04-24 20:37 52.63403 14.51140 1819 ft 90 kts 297°
2026-04-24 20:37 52.63692 14.50221 1820 ft 91 kts 296°
2026-04-24 20:37 52.63978 14.49297 1815 ft 91 kts 296°
2026-04-24 20:38 52.64281 14.48399 1816 ft 89 kts 300°
2026-04-24 20:38 52.64626 14.47556 1813 ft 89 kts 304°
2026-04-24 20:38 52.65014 14.46769 1815 ft 89 kts 308°
2026-04-24 20:38 52.65441 14.46040 1811 ft 88 kts 313°
2026-04-24 20:39 52.65903 14.45373 1810 ft 88 kts 317°
2026-04-24 20:39 52.66381 14.44725 1815 ft 89 kts 317°
2026-04-24 20:39 52.66860 14.44063 1818 ft 91 kts 317°
2026-04-24 20:39 52.67341 14.43388 1818 ft 91 kts 316°
2026-04-24 20:40 52.67820 14.42704 1811 ft 91 kts 316°
2026-04-24 20:40 52.68335 14.42134 1803 ft 89 kts 333°
2026-04-24 20:40 52.68915 14.41776 1814 ft 90 kts 334°
2026-04-24 20:40 52.69505 14.41407 1810 ft 91 kts 333°
2026-04-24 20:41 52.70095 14.41017 1821 ft 91 kts 329°
2026-04-24 20:41 52.70639 14.40492 1826 ft 91 kts 324°
2026-04-24 20:41 52.71184 14.39936 1821 ft 93 kts 323°
2026-04-24 20:41 52.71665 14.39272 1830 ft 89 kts 308°
2026-04-24 20:42 52.72069 14.38486 1822 ft 90 kts 308°
2026-04-24 20:42 52.72486 14.37708 1816 ft 90 kts 310°
2026-04-24 20:42 52.72922 14.36973 1818 ft 89 kts 311°
2026-04-24 20:42 52.73338 14.36210 1826 ft 90 kts 309°
2026-04-24 20:43 52.73744 14.35415 1824 ft 91 kts 308°
2026-04-24 20:43 52.74136 14.34595 1820 ft 91 kts 306°
2026-04-24 20:43 52.74502 14.33762 1844 ft 91 kts 300°
2026-04-24 20:43 52.74385 14.32695 2191 ft 109 kts 251°
2026-04-24 20:44 52.74046 14.31316 2291 ft 143 kts 255°
2026-04-24 20:44 52.73696 14.29620 2284 ft 163 kts 256°
2026-04-24 20:44 52.73325 14.27812 2290 ft 168 kts 256°
2026-04-24 20:44 52.72946 14.25990 2295 ft 167 kts 255°
2026-04-24 20:45 52.72565 14.24172 2254 ft 168 kts 255°
2026-04-24 20:45 52.72178 14.22356 2282 ft 168 kts 255°
2026-04-24 20:45 52.71787 14.20540 2296 ft 167 kts 255°
2026-04-24 20:45 52.71395 14.18730 2270 ft 168 kts 254°
2026-04-24 20:46 52.70997 14.16920 2292 ft 168 kts 254°
2026-04-24 20:46 52.70596 14.15113 2273 ft 167 kts 254°
2026-04-24 20:46 52.70191 14.13309 2266 ft 168 kts 254°
2026-04-24 20:46 52.69783 14.11508 2280 ft 168 kts 253°
2026-04-24 20:47 52.69370 14.09708 2299 ft 168 kts 253°
2026-04-24 20:47 52.68954 14.07913 2255 ft 168 kts 253°
2026-04-24 20:47 52.68533 14.06119 2275 ft 168 kts 253°
2026-04-24 20:47 52.68162 14.04306 2303 ft 165 kts 260°
2026-04-24 20:48 52.67962 14.02424 2306 ft 166 kts 264°
2026-04-24 20:48 52.67763 14.00534 2262 ft 168 kts 264°
2026-04-24 20:48 52.67559 13.98645 2280 ft 168 kts 264°
2026-04-24 20:48 52.67354 13.96758 2290 ft 166 kts 263°
2026-04-24 20:49 52.67100 13.94911 2306 ft 165 kts 260°
2026-04-24 20:49 52.66768 13.93079 2267 ft 168 kts 256°
2026-04-24 20:49 52.66361 13.91288 2285 ft 167 kts 252°
2026-04-24 20:49 52.65882 13.89545 2300 ft 167 kts 249°
2026-04-24 20:50 52.65386 13.87804 2282 ft 167 kts 249°
2026-04-24 20:50 52.64905 13.86057 2249 ft 168 kts 250°
2026-04-24 20:50 52.64438 13.84296 2270 ft 168 kts 250°
2026-04-24 20:50 52.63993 13.82529 2280 ft 168 kts 251°
2026-04-24 20:51 52.63547 13.80754 2303 ft 168 kts 251°
2026-04-24 20:51 52.63100 13.78982 2305 ft 167 kts 251°
2026-04-24 20:51 52.62650 13.77213 2266 ft 168 kts 251°
2026-04-24 20:51 52.62235 13.75446 2291 ft 168 kts 253°
2026-04-24 20:52 52.61832 13.73646 2308 ft 168 kts 253°
2026-04-24 20:52 52.61442 13.71838 2263 ft 168 kts 254°
2026-04-24 20:52 52.61076 13.70014 2223 ft 168 kts 256°
2026-04-24 20:52 52.60788 13.68155 2195 ft 168 kts 260°
2026-04-24 20:53 52.60584 13.66265 2118 ft 168 kts 264°
2026-04-24 20:53 52.60467 13.64358 2017 ft 168 kts 269°
2026-04-24 20:53 52.60432 13.62504 1668 ft 157 kts 271°
2026-04-24 20:53 52.60435 13.60787 1092 ft 143 kts 272°
2026-04-24 20:54 52.60429 13.59157 496 ft 134 kts 268°
2026-04-24 20:54 52.60249 13.57930 338 ft 73 kts 254°
2026-04-24 20:54 52.60179 13.57608 265 ft 5 kts 257°
2026-04-24 20:54 52.60161 13.57599 235 ft 10 kts 188°
2026-04-24 20:55 52.60071 13.57626 226 ft 13 kts 110°
2026-04-24 20:55 52.60093 13.57670 226 ft 4 kts 306°
2026-04-24 20:55 52.60098 13.57663 223 ft 0 kts 315°